Location: Cincinnati Observatory Center
(39.1389°N, 84.4225°W)
Time: 23:31:09
(UTC-05:00)

Hubble Space Telescope - Visible Passes

Search period start: 10 February 2016 00:00
Search period end: 20 February 2016 00:00
Orbit: 540 x 543 km, 28.5° (Epoch: 10 February)

Date Brightness Start Highest point End Pass type
(mag) Time Alt. Az. Time Alt. Az. Time Alt. Az.
11 Feb 3.2 20:07:40 10° SSW 20:08:45 13° S 20:08:45 13° S visible
12 Feb 2.9 19:57:46 10° SSW 19:59:58 15° S 19:59:58 15° S visible
13 Feb 2.8 19:47:58 10° SSW 19:50:37 16° S 19:51:10 16° SSE visible
14 Feb 2.7 19:38:16 10° SW 19:41:04 18° S 19:42:21 15° SSE visible
15 Feb 2.8 19:28:38 10° SW 19:31:31 18° S 19:33:31 14° SE visible
16 Feb 2.8 19:19:02 10° SW 19:21:58 19° S 19:24:42 11° SE visible
17 Feb 2.9 19:09:30 10° SW 19:12:24 18° S 19:15:19 10° SE visible
17 Feb 3.7 20:51:10 10° SW 20:51:18 10° SW 20:51:18 10° SW visible
18 Feb 3.0 19:00:00 10° SW 19:02:51 18° S 19:05:42 10° SE visible
18 Feb 3.6 20:42:24 10° SSW 20:42:32 10° SSW 20:42:32 10° SSW visible
19 Feb 3.1 18:50:33 10° SW 18:53:17 17° S 18:56:00 10° SE visible
